This is the latest recevied weather packets stored in our database for station/object RW6A-13. If no packets are shown the sender has not sent any weather packets the latest 10 day(s).
| Time | Temp. | Humidity | Pressure | Rain* | Wind** | Luminosity | Snow |
|---|---|---|---|---|---|---|---|
| 1777362547 | 17.22° C | 35% | 1015.7 hPa | 0 mm | - | - | - |
| 1777362247 | 16.11° C | 34% | 1015.7 hPa | 0 mm | - | - | - |
| 1777361947 | 17.78° C | 33% | 1015.7 hPa | 0 mm | - | - | - |
| 1777361646 | 17.78° C | 33% | 1015.7 hPa | 0 mm | - | - | - |
| 1777361347 | 17.78° C | 35% | 1015.8 hPa | 0 mm | - | - | - |
| 1777361046 | 17.22° C | 34% | 1015.9 hPa | 0 mm | - | - | - |
| 1777360747 | 17.22° C | 34% | 1015.9 hPa | 0 mm | - | - | - |
| 1777360446 | 17.22° C | 33% | 1015.9 hPa | 0 mm | - | - | - |
| 1777360147 | 17.22° C | 35% | 1016 hPa | 0 mm | - | - | - |
| 1777359846 | 16.67° C | 35% | 1015.9 hPa | 0 mm | - | - | - |
| 1777359546 | 17.22° C | 36% | 1016 hPa | 0 mm | - | - | - |
| 1777359246 | 16.67° C | 37% | 1015.9 hPa | 0 mm | - | - | - |
| 1777358947 | 16.11° C | 39% | 1015.9 hPa | 0 mm | - | - | - |
| 1777358646 | 15.56° C | 38% | 1015.8 hPa | 0 mm | - | - | - |
| 1777358346 | 16.11° C | 36% | 1015.8 hPa | 0 mm | - | - | - |
| 1777358046 | 16.11° C | 39% | 1015.8 hPa | 0 mm | - | - | - |
| 1777357746 | 16.11° C | 41% | 1015.8 hPa | 0 mm | - | - | - |
| 1777357446 | 15.56° C | 42% | 1015.9 hPa | 0 mm | - | - | - |
| 1777357146 | 15.56° C | 42% | 1015.8 hPa | 0 mm | - | - | - |
| 1777356846 | 15.56° C | 48% | 1015.9 hPa | 0 mm | - | - | - |
| 1777356546 | 15° C | 46% | 1015.8 hPa | 0 mm | - | - | - |
| 1777356246 | 14.44° C | 47% | 1015.8 hPa | 0 mm | - | - | - |
| 1777355946 | 15° C | 47% | 1015.8 hPa | 0 mm | - | - | - |
| 1777355646 | 15° C | 54% | 1015.9 hPa | 0 mm | - | - | - |
| 1777355346 | 14.44° C | 53% | 1015.9 hPa | 0 mm | - | - | - |
* Rain latest hour (hover to see other rain measurements)
** Current wind speed in m/s (hover to see current wind gust speed)